PBO Station Position Time Series. Reference Frame : NAM14
Format Version,1.1.0
4-character ID,PRSR
Station name,PRSR
Begin Date, 2007-08-06
End Date, 2019-10-07
Release Date, 2019-10-08
Reference position, 46.2156767024 North Latitude, -119.7908371403 East Longitude, 197.63756 meters elevation,
Date, North (mm), East (mm), Vertical (mm), North Std. Deviation (mm), East Std. Deviation (mm),              Vertical Std. Deviation (mm), Quality,
2007-08-06,0.00, 0.00, 0.00, 4.25, 3.08, 17.30, repro,
2007-08-07,2.27, -1.24, 12.41, 4.20, 3.01, 16.73, repro,
2007-08-08,2.24, -0.51, 0.13, 4.24, 3.03, 16.93, repro,
2007-08-09,1.67, 0.03, -11.90, 4.10, 3.00, 16.42, repro,
2007-08-10,-0.33, -0.38, -2.36, 4.15, 2.99, 16.75, repro,
2007-08-11,3.76, -2.58, -5.20, 4.13, 3.02, 16.90, repro,
2007-08-12,-0.58, -4.10, -4.33, 4.18, 3.03, 17.06, repro,
2007-08-13,4.15, -2.26, -6.82, 4.14, 2.96, 16.51, repro,
2007-08-14,4.22, -0.56, -5.42, 4.53, 3.35, 18.67, repro,
2007-08-15,3.32, -1.39, -9.25, 4.46, 3.26, 18.07, repro,
2007-08-16,2.21, -0.79, 25.31, 8.95, 5.40, 31.10, repro,
2007-08-17,1.08, -2.18, -11.81, 4.40, 3.14, 17.62, repro,
2007-08-18,1.23, -1.26, -10.01, 4.53, 3.16, 18.27, repro,
2007-08-19,2.76, -1.83, -7.83, 4.40, 3.17, 18.07, repro,
2007-08-20,0.55, -1.49, -9.17, 4.33, 3.10, 17.30, repro,
2007-08-21,2.26, -1.97, -5.60, 4.26, 3.08, 17.26, repro,
2007-08-22,1.99, -3.90, -17.73, 4.35, 3.10, 17.71, repro,
2007-08-23,2.40, -2.30, -2.93, 4.30, 3.04, 17.09, repro,
2007-08-24,3.51, -2.50, -4.62, 4.56, 3.19, 17.58, repro,
2007-08-25,1.55, -0.86, -18.35, 4.28, 3.14, 16.99, repro,
2007-08-26,0.23, -2.94, 2.67, 4.37, 3.18, 17.34, repro,
2007-08-27,1.08, -2.52, -12.52, 4.22, 3.15, 16.95, repro,
2007-08-28,0.88, -3.13, -10.05, 4.27, 3.14, 17.08, repro,
2007-08-29,2.27, -2.26, -4.14, 4.29, 3.15, 17.17, repro,
2007-08-30,2.21, -4.14, -3.59, 4.06, 3.12, 16.63, repro,
2007-08-31,2.26, -2.66, 15.76, 4.22, 3.09, 16.87, repro,
2007-09-01,4.85, -2.65, -5.41, 4.37, 3.10, 16.73, repro,
2007-09-03,1.30, -3.98, 8.05, 4.15, 3.13, 16.81, repro,
2007-09-04,0.93, -3.08, -8.44, 4.29, 3.13, 17.08, repro,
2007-09-05,-1.18, -3.08, 4.73, 4.56, 3.44, 18.98, repro,
2007-09-06,0.48, -4.37, -6.47, 4.23, 3.11, 16.78, repro,
2007-09-08,0.40, -2.39, -1.56, 4.95, 3.60, 18.85, repro,
2007-09-09,-0.62, -1.83, -6.47, 4.28, 3.15, 17.11, repro,
2007-09-10,0.45, -2.24, -6.47, 4.35, 3.14, 17.09, repro,
2007-09-11,-0.12, -2.56, 3.66, 4.21, 3.05, 16.37, repro,
2007-09-12,2.44, -4.00, 1.92, 4.23, 3.11, 16.52, repro,
2007-09-13,0.13, -2.49, 2.23, 4.21, 3.10, 16.53, repro,
2007-09-14,2.23, -1.72, 4.58, 4.01, 3.01, 15.79, repro,
2007-09-15,0.46, -1.15, -4.33, 4.45, 3.19, 17.64, repro,
2007-09-16,-0.31, -1.50, -0.60, 4.29, 3.11, 17.01, repro,
2007-09-17,0.38, -3.07, 9.81, 4.15, 3.13, 16.44, repro,
2007-09-18,-0.89, -2.90, -1.71, 4.24, 3.18, 17.24, repro,
2007-09-19,0.11, -2.23, 0.60, 4.20, 3.10, 17.13, repro,
2007-09-20,0.15, -2.33, -16.60, 4.18, 3.04, 16.57, repro,
2007-09-21,2.67, -1.35, -11.77, 4.29, 3.10, 17.37, repro,
2007-09-22,-0.12, -3.16, -6.62, 4.23, 3.06, 16.99, repro,
2007-09-23,-2.75, -2.11, 3.02, 4.39, 3.06, 16.90, repro,
2007-09-24,-0.39, -1.73, -7.31, 4.33, 3.13, 17.17, repro,
2007-09-25,0.84, -1.30, -5.51, 4.35, 3.08, 17.25, repro,
2007-09-26,2.24, -0.88, 2.74, 4.16, 3.00, 16.59, repro,
2007-09-27,1.39, -2.51, -7.80, 4.23, 3.08, 17.14, repro,
2007-09-28,0.08, -1.89, -3.90, 4.11, 3.00, 16.44, repro,
2007-09-29,-0.34, -2.09, 6.96, 4.21, 3.04, 16.93, repro,
2007-09-30,-0.26, -2.99, -7.62, 4.46, 3.31, 18.25, repro,
2007-10-01,1.20, -3.19, -13.77, 4.30, 3.12, 17.42, repro,
2007-10-02,1.67, -0.76, -5.38, 4.37, 3.19, 17.90, repro,
2007-10-03,-1.88, -1.45, -2.06, 4.23, 3.08, 17.16, repro,
2007-10-04,0.58, -1.60, 11.93, 4.31, 3.22, 18.00, repro,
2007-10-05,-0.49, -1.81, -4.71, 4.16, 3.00, 16.45, repro,
2007-10-06,-0.28, -3.13, -7.42, 4.12, 2.98, 16.35, repro,
2007-10-07,2.73, -1.40, -1.57, 4.31, 3.08, 17.12, repro,
2007-10-08,1.72, -0.76, -14.33, 4.72, 3.07, 17.28, repro,
2007-10-09,-1.16, -0.70, -1.49, 4.55, 3.37, 18.76, repro,
2007-10-10,1.72, 0.37, 2.44, 4.38, 3.09, 16.83, repro,
2007-10-11,1.39, -0.63, -1.11, 4.20, 3.04, 16.90, repro,
2007-10-12,0.61, -2.16, -5.53, 4.32, 3.15, 17.44, repro,
2007-10-13,2.76, -0.65, -5.22, 4.29, 3.10, 17.30, repro,
2007-10-14,3.50, -2.64, -11.38, 4.27, 3.13, 17.38, repro,
2007-10-15,3.38, -0.91, -7.34, 4.22, 3.03, 16.85, repro,
2007-10-16,0.01, -1.38, 5.65, 4.20, 3.03, 16.78, repro,
2007-10-17,-0.74, -0.36, 3.60, 4.36, 3.13, 17.70, repro,
2007-10-18,0.96, -2.83, 2.96, 4.22, 3.06, 16.79, repro,
2007-10-19,3.93, -0.34, -11.83, 4.29, 3.05, 16.85, repro,
2007-10-20,1.90, 0.56, -1.11, 4.22, 3.01, 16.54, repro,
2007-10-21,0.34, -0.98, -11.18, 4.23, 3.05, 16.73, repro,
2007-10-22,0.43, -1.32, -10.11, 4.32, 3.07, 17.21, repro,
2007-10-23,-0.71, -0.29, -5.34, 4.46, 3.21, 18.11, repro,
2007-10-24,1.58, -0.90, -2.17, 4.42, 3.16, 17.95, repro,
2007-10-25,-0.34, 1.78, -5.03, 4.34, 3.18, 17.56, repro,
2007-10-26,1.61, 1.00, -11.33, 4.28, 3.17, 17.25, repro,
2007-10-27,0.11, -0.30, -15.18, 4.38, 3.12, 17.58, repro,
2007-10-28,1.06, 0.54, -11.41, 4.28, 3.07, 17.04, repro,
2007-10-29,0.94, -1.29, -2.87, 4.20, 3.05, 16.86, repro,
2007-10-30,0.34, -1.17, -3.74, 4.21, 3.05, 16.91, repro,
2007-10-31,-1.03, -0.52, -6.03, 4.34, 3.12, 17.17, repro,
2007-11-01,1.60, -1.67, -18.49, 4.45, 3.20, 17.67, repro,
2007-11-02,0.36, -1.46, -7.25, 4.19, 3.06, 16.73, repro,
2007-11-03,-0.59, -0.52, -0.68, 4.23, 3.10, 17.15, repro,
2007-11-04,-0.77, -0.57, -4.72, 4.01, 2.94, 16.31, repro,
2007-11-05,0.65, -0.93, -5.50, 4.20, 3.01, 16.67, repro,
2007-11-06,1.74, -0.14, -12.42, 4.20, 3.02, 16.65, repro,
2007-11-07,0.30, -0.78, -7.12, 4.31, 3.10, 17.38, repro,
2007-11-08,2.85, -1.94, 1.26, 4.36, 3.11, 17.40, repro,
2007-11-09,0.84, -0.89, -10.11, 4.38, 3.16, 17.82, repro,
2007-11-10,0.50, -1.17, 0.08, 4.23, 3.10, 16.82, repro,
2007-11-11,-0.40, -1.12, -8.62, 4.20, 3.04, 16.86, repro,
2007-11-12,2.04, -0.65, -8.50, 4.22, 3.03, 16.81, repro,
2007-11-13,1.39, -1.39, -8.71, 4.29, 3.10, 17.30, repro,
2007-11-14,0.83, -0.69, -5.13, 4.18, 3.02, 16.52, repro,
2007-11-15,-0.05, -1.60, -2.85, 4.19, 3.06, 16.90, repro,
2007-11-16,1.36, -0.12, 0.88, 4.17, 3.04, 16.68, repro,
2007-11-17,0.47, -1.56, -13.11, 4.35, 3.18, 17.28, repro,
2007-11-18,0.69, -1.61, -6.81, 4.28, 3.04, 16.98, repro,
2007-11-19,-1.13, -0.87, -80.77, 4.32, 3.12, 17.43, repro,
2007-11-20,0.50, -0.48, -15.98, 4.29, 3.12, 17.32, repro,
2007-11-21,-0.21, 0.35, -16.06, 4.24, 3.15, 17.00, repro,
2007-11-22,0.47, 0.03, -22.38, 4.20, 3.09, 16.49, repro,
2007-11-23,0.58, 0.08, -22.07, 4.24, 3.19, 17.20, repro,
2007-11-24,0.26, -0.50, -19.61, 5.24, 3.75, 21.90, repro,
2007-11-25,0.95, 0.23, -13.30, 4.53, 3.34, 17.99, repro,
2007-11-26,0.36, -0.03, -6.99, 4.64, 3.56, 18.46, repro,
2007-11-27,-0.01, -0.08, -12.38, 4.26, 3.19, 17.18, repro,
2007-11-28,1.30, -0.63, -22.03, 4.56, 3.29, 17.98, repro,
2007-11-29,-0.01, -1.12, -88.57, 4.41, 3.28, 18.21, repro,
2007-11-30,9.21, -3.62, -206.60, 4.24, 3.06, 16.83, repro,
2007-12-01,-2.14, -0.49, -42.54, 4.52, 3.42, 18.48, repro,
2007-12-02,-0.99, -1.24, -33.14, 4.66, 3.47, 19.25, repro,
2007-12-03,0.05, -4.19, -18.14, 5.07, 3.82, 20.56, repro,
2007-12-04,3.63, -1.60, -6.79, 4.63, 3.57, 19.16, repro,
2007-12-05,2.62, -0.90, -14.71, 4.65, 3.58, 19.40, repro,
2007-12-06,2.04, -4.25, -33.01, 4.83, 3.83, 20.76, repro,
2007-12-07,7.71, 3.09, -61.35, 4.79, 3.73, 20.54, repro,
2007-12-08,2.20, -1.46, -8.38, 4.84, 3.59, 20.10, repro,
2007-12-09,2.18, -2.80, -30.54, 4.78, 3.74, 20.04, repro,
2007-12-10,1.56, -3.07, -27.97, 4.63, 3.54, 18.89, repro,
2007-12-11,0.97, -1.84, -28.20, 4.59, 3.43, 19.09, repro,
2007-12-12,1.00, -1.69, -18.25, 4.61, 3.40, 18.64, repro,
2007-12-13,0.19, -1.18, -17.34, 4.41, 3.26, 17.77, repro,
2007-12-14,2.35, -1.72, -18.88, 4.33, 3.07, 17.15, repro,
2007-12-15,1.28, -2.95, -25.22, 4.50, 3.17, 17.37, repro,
2007-12-16,2.29, -0.46, -17.56, 4.27, 3.07, 16.94, repro,
2007-12-17,-1.19, -0.20, -5.45, 4.32, 3.06, 16.93, repro,
2007-12-18,1.28, -0.70, -9.09, 4.34, 3.16, 17.22, repro,
2007-12-19,0.55, -1.32, -10.84, 4.71, 3.31, 18.48, repro,
2007-12-20,3.57, -1.47, -11.29, 4.39, 3.22, 17.68, repro,
2007-12-21,2.62, -0.93, -27.53, 4.83, 3.67, 19.74, repro,
2007-12-22,1.40, -1.53, -15.35, 4.58, 3.40, 18.13, repro,
2007-12-23,-0.15, -3.46, -12.96, 4.42, 3.21, 17.71, repro,
2007-12-24,0.13, -3.42, -17.96, 4.57, 3.38, 18.34, repro,
2007-12-25,-0.08, -1.72, -12.46, 4.43, 3.28, 17.94, repro,
2007-12-26,0.89, -2.73, -22.67, 4.35, 3.20, 17.12, repro,
2007-12-27,1.45, -1.97, -14.06, 4.50, 3.30, 18.17, repro,
2007-12-28,-1.04, -2.16, -14.64, 4.49, 3.24, 17.70, repro,
2007-12-29,-0.39, -3.79, -8.38, 4.41, 3.13, 17.09, repro,
2007-12-30,1.30, -1.87, -20.55, 4.49, 3.21, 17.56, repro,
2007-12-31,1.80, -1.99, -23.70, 4.29, 2.97, 16.42, repro,
2008-01-01,1.42, 0.80, -36.08, 5.70, 4.03, 23.36, repro,
2008-01-02,-0.38, -0.62, -28.86, 4.21, 2.95, 16.46, repro,
2008-01-03,-1.75, -2.80, -3.79, 4.26, 2.96, 16.42, repro,
2008-01-04,-0.85, -1.50, -7.78, 4.63, 3.21, 17.91, repro,
2008-01-05,-1.06, -3.43, -0.47, 4.34, 3.01, 16.83, repro,
2008-01-06,2.65, -1.31, -15.92, 4.15, 2.91, 16.04, repro,
2008-01-07,2.13, -1.85, -15.33, 4.23, 2.98, 16.61, repro,
2008-01-08,-2.90, -2.37, -21.64, 4.46, 3.11, 17.30, repro,
2008-01-09,1.74, -1.59, -101.03, 4.28, 2.95, 16.57, repro,
2008-01-10,-8.53, 7.54, -32.62, 4.99, 3.45, 19.64, repro,
2008-01-11,2.32, 0.38, -27.34, 4.21, 2.99, 16.78, repro,
2008-01-12,1.48, 0.60, -25.93, 4.43, 3.10, 17.46, repro,
2008-01-13,1.91, -0.79, -23.74, 4.19, 3.01, 16.87, repro,
2008-01-14,-1.27, -3.23, -22.55, 6.30, 5.35, 29.47, repro,
2008-01-15,-1.70, -2.10, -15.58, 4.23, 3.05, 16.66, repro,
2008-01-16,-0.24, -2.07, -26.63, 4.42, 3.07, 17.36, repro,
2008-01-17,-0.34, -2.62, -24.87, 4.34, 3.05, 17.31, repro,
2008-01-18,1.09, -1.40, -31.42, 4.26, 3.12, 17.36, repro,
2008-01-19,0.57, -1.98, -26.06, 4.17, 2.96, 16.62, repro,
2008-01-20,0.03, -1.87, -17.91, 4.36, 3.10, 17.57, repro,
2008-01-21,0.89, -3.13, -17.92, 4.22, 2.96, 16.59, repro,
2008-01-22,1.04, -1.25, -24.11, 4.15, 2.93, 16.33, repro,
2008-01-23,1.84, -0.80, -20.71, 4.17, 2.98, 16.64, repro,
2008-01-24,0.27, -0.20, -18.67, 4.37, 3.06, 16.87, repro,
2008-02-01,2.48, -2.94, -14.40, 4.50, 3.21, 18.10, repro,
2008-02-02,1.32, -2.14, -12.55, 4.12, 2.92, 16.16, repro,
2008-02-03,0.66, 0.37, -34.46, 4.72, 3.58, 19.93, repro,
2008-02-04,4.53, -1.20, -33.74, 4.23, 2.98, 16.72, repro,
2008-02-05,0.30, -0.19, -11.88, 4.26, 3.07, 17.14, repro,
2008-02-06,1.17, -1.81, -10.08, 4.17, 3.01, 16.52, repro,
2008-02-07,0.27, -1.23, -1.34, 4.25, 3.02, 16.96, repro,
2008-02-08,0.72, -1.29, -17.14, 4.22, 3.09, 17.01, repro,
2008-02-09,2.89, -0.40, -15.11, 4.26, 3.12, 17.43, repro,
2008-02-10,2.91, -2.18, -20.16, 4.23, 3.02, 16.87, repro,
2008-02-11,1.13, -1.12, -16.16, 4.18, 3.00, 16.77, repro,
2008-02-12,1.25, -1.36, -11.91, 4.13, 2.96, 16.27, repro,
2008-02-13,5.40, -4.66, -16.33, 6.26, 4.81, 25.40, repro,
2008-02-14,2.36, -0.42, -19.09, 4.17, 3.03, 16.84, repro,
2008-02-15,0.61, -0.09, -26.48, 4.45, 3.19, 18.04, repro,
2008-02-16,0.86, -1.39, -26.55, 5.19, 3.52, 20.81, repro,
2008-02-17,0.33, -2.80, -5.56, 6.94, 4.72, 26.46, repro,
2008-02-18,-0.11, -2.76, -9.08, 4.27, 2.99, 16.77, repro,
2008-02-19,2.22, -2.17, -5.85, 4.14, 2.91, 16.21, repro,
2008-02-20,1.97, -0.62, -10.23, 4.21, 3.01, 16.79, repro,
2008-02-21,1.73, -2.54, -17.21, 5.16, 3.45, 19.99, repro,
2008-02-22,4.42, 1.49, -11.29, 7.37, 4.55, 20.21, repro,
2008-02-23,3.43, -1.83, -15.80, 2.21, 1.56, 7.07, repro,
2008-02-24,4.00, -1.37, -14.05, 2.20, 1.56, 7.08, repro,
2008-02-25,3.27, -1.62, -22.29, 2.20, 1.56, 7.00, repro,
2008-02-26,4.24, -1.93, -30.53, 2.18, 1.56, 7.01, repro,
2008-02-27,6.20, -3.60, -18.70, 3.87, 3.04, 13.17, repro,
2008-02-28,3.88, -2.34, -20.77, 2.29, 1.59, 7.24, repro,
2008-02-29,3.48, -3.21, -17.33, 2.21, 1.55, 7.02, repro,
2008-03-01,3.62, -0.67, -20.54, 2.19, 1.54, 6.96, repro,
2008-03-02,3.29, -1.41, -23.33, 2.27, 1.62, 7.36, repro,
2008-03-03,-0.83, 0.60, -13.17, 3.28, 2.50, 10.88, repro,
2008-03-04,2.96, -1.82, -24.97, 2.22, 1.55, 7.04, repro,
2008-03-05,2.85, -2.19, -21.88, 2.28, 1.64, 7.37, repro,
2008-03-06,1.88, -1.43, -25.26, 2.21, 1.54, 7.01, repro,
2008-03-07,2.48, -1.08, -27.29, 2.16, 1.53, 6.88, repro,
2008-03-08,4.04, -2.57, -18.21, 2.21, 1.57, 7.12, repro,
2008-03-09,2.49, -2.25, -21.47, 2.28, 1.61, 7.35, repro,
2008-03-10,2.43, -1.31, -21.14, 2.20, 1.54, 6.98, repro,
2008-03-11,2.07, -3.47, -24.06, 2.18, 1.53, 6.92, repro,
2008-03-12,3.01, -1.61, -23.38, 2.23, 1.56, 7.08, repro,
2008-03-13,2.76, -1.61, -15.98, 2.82, 1.94, 8.90, repro,
2008-03-14,5.88, -3.60, -9.58, 3.93, 2.86, 12.61, repro,
2008-03-15,2.10, -1.77, -18.22, 2.20, 1.55, 7.02, repro,
2008-03-16,2.32, -1.88, -19.35, 2.22, 1.58, 7.12, repro,
2008-03-17,3.31, -2.20, -20.82, 2.32, 1.67, 7.51, repro,
2008-03-18,1.88, -3.32, -15.46, 2.23, 1.57, 7.13, repro,
2008-03-19,1.67, -0.57, -18.22, 2.46, 1.67, 7.65, repro,
2008-03-20,3.39, -1.82, -23.90, 2.22, 1.56, 7.08, repro,
2008-03-21,4.15, -2.32, -23.13, 2.30, 1.61, 7.24, repro,
2008-03-22,3.36, -2.08, -26.91, 2.22, 1.55, 7.04, repro,
2008-03-23,2.53, -2.05, -21.02, 2.20, 1.53, 6.92, repro,
2008-03-24,3.21, -2.90, -16.76, 2.21, 1.54, 7.01, repro,
2008-03-25,2.13, -1.54, -19.49, 2.26, 1.60, 7.26, repro,
2008-03-26,3.60, -1.95, -19.77, 2.26, 1.60, 7.22, repro,
2008-03-27,3.04, -2.58, -29.17, 3.28, 2.49, 11.20, repro,
2008-03-28,1.34, -1.14, -16.80, 2.25, 1.60, 7.16, repro,
2008-03-29,2.04, -1.84, -19.02, 2.20, 1.53, 7.00, repro,
2008-03-30,4.06, -1.49, -21.79, 2.21, 1.53, 7.01, repro,
2008-03-31,1.74, -1.18, -26.11, 2.23, 1.54, 7.08, repro,
2008-04-01,2.74, -1.33, -24.84, 2.25, 1.56, 7.16, repro,
2008-04-02,3.13, -1.37, -20.71, 2.28, 1.54, 7.17, repro,
2008-04-03,2.90, -1.78, -19.15, 2.20, 1.53, 7.01, repro,
2008-05-05,4.51, -1.36, -23.20, 2.29, 1.58, 7.24, repro,
2008-05-06,4.25, -0.87, -21.75, 2.32, 1.59, 7.31, repro,
2008-05-07,3.85, -2.17, -21.70, 2.24, 1.53, 7.05, repro,
2008-05-08,2.80, -1.56, -22.54, 2.27, 1.56, 7.21, repro,
2008-05-09,2.61, -2.01, -25.51, 2.30, 1.60, 7.41, repro,
2008-05-10,3.02, -1.29, -17.91, 2.22, 1.53, 7.01, repro,
2008-05-11,1.54, -2.67, -16.82, 2.26, 1.53, 7.09, repro,
2008-05-12,1.38, -0.80, -16.90, 2.42, 1.66, 7.66, repro,
2008-05-13,2.62, -0.09, -21.48, 2.26, 1.53, 7.12, repro,
2008-05-14,2.25, -1.28, -25.62, 2.26, 1.54, 7.12, repro,
2008-05-15,0.74, 0.65, -33.76, 2.25, 1.53, 7.07, repro,
2008-05-16,4.38, -1.41, -26.12, 2.20, 1.51, 6.89, repro,
2008-05-17,5.70, -1.12, -23.33, 3.44, 2.16, 10.31, repro,
2008-05-18,2.82, -0.71, -12.78, 2.30, 1.58, 7.22, repro,
2008-05-19,4.60, -0.50, -21.09, 2.29, 1.55, 7.19, repro,
2008-05-20,3.51, -1.40, -14.81, 2.23, 1.54, 7.12, repro,
2008-05-21,2.20, -0.71, -14.82, 2.22, 1.53, 7.04, repro,
2008-05-22,3.65, -1.20, -16.30, 2.22, 1.56, 7.10, repro,
2008-05-23,3.05, -0.30, -12.83, 2.22, 1.54, 7.02, repro,
2008-05-24,3.39, -1.12, -22.42, 2.23, 1.54, 7.07, repro,
2008-05-25,2.87, 0.06, -21.26, 2.24, 1.54, 7.11, repro,
2008-05-26,3.69, -0.13, -14.68, 2.23, 1.54, 7.10, repro,
2008-05-27,1.40, -0.36, -17.00, 2.51, 1.78, 8.02, repro,
2008-05-28,3.40, -1.05, -18.94, 2.38, 1.72, 7.83, repro,
2008-05-29,2.73, -0.31, -18.48, 2.28, 1.59, 7.27, repro,
2008-05-30,3.53, -1.24, -16.01, 2.24, 1.55, 7.11, repro,
2008-05-31,3.70, -0.32, -18.54, 2.24, 1.55, 7.13, repro,
2008-06-01,4.35, -1.17, -10.99, 2.24, 1.55, 7.10, repro,
2008-06-02,3.08, -1.43, -15.52, 2.21, 1.53, 6.98, repro,
2008-06-03,4.50, -0.77, -19.44, 2.31, 1.60, 7.33, repro,
2008-06-04,2.76, -1.93, -12.81, 2.49, 1.80, 8.04, repro,
2008-06-05,3.25, -0.31, -11.69, 2.25, 1.56, 7.19, repro,
2008-06-06,2.86, -0.27, -17.24, 2.28, 1.59, 7.23, repro,
2008-06-07,3.42, -0.56, -13.03, 2.29, 1.61, 7.28, repro,
2008-06-08,2.15, -0.97, -19.11, 2.29, 1.64, 7.47, repro,
2008-06-09,2.97, -0.96, -15.36, 2.26, 1.59, 7.25, repro,
2008-06-10,3.00, -1.62, -18.10, 2.25, 1.56, 7.20, repro,
2008-06-11,2.96, -0.74, -23.49, 2.26, 1.57, 7.19, repro,
2008-06-12,3.10, -0.12, -21.69, 2.23, 1.56, 7.12, repro,
2008-06-13,2.42, 0.44, -23.94, 2.23, 1.55, 7.13, repro,
2008-06-14,3.62, 0.73, -22.98, 2.30, 1.59, 7.33, repro,
2008-06-15,3.92, -1.00, -24.45, 2.30, 1.58, 7.34, repro,
2008-06-16,3.76, -0.26, -20.23, 2.23, 1.54, 7.09, repro,
2008-06-17,3.22, 0.47, -21.81, 2.24, 1.56, 7.14, repro,
2008-06-18,3.81, 0.06, -22.53, 2.32, 1.61, 7.41, repro,
2008-06-19,4.33, -0.84, -19.25, 2.24, 1.59, 7.29, repro,
2008-06-20,4.38, -1.31, -16.70, 2.23, 1.60, 7.33, repro,
2008-06-21,4.02, 1.01, -24.94, 2.31, 1.60, 7.43, repro,
2008-06-22,4.17, 1.31, -26.34, 2.27, 1.57, 7.32, repro,
2008-06-23,4.17, 0.38, -20.69, 2.24, 1.55, 7.15, repro,
2008-06-24,4.04, 0.60, -18.62, 2.23, 1.55, 7.13, repro,
2008-06-25,3.60, 0.08, -18.51, 2.22, 1.56, 7.17, repro,
2008-06-26,3.22, -0.86, -12.68, 2.24, 1.60, 7.30, repro,
2008-06-27,3.45, -0.16, -19.60, 2.24, 1.56, 7.20, repro,
2008-06-28,4.37, 0.85, -24.03, 2.23, 1.55, 7.14, repro,
2008-06-29,3.43, -0.42, -17.40, 2.24, 1.56, 7.15, repro,
2008-06-30,3.99, 0.49, -25.45, 2.25, 1.56, 7.18, repro,
2008-07-01,4.74, -1.34, -12.49, 2.27, 1.58, 7.36, repro,
2008-07-02,3.46, 0.54, -20.55, 2.27, 1.58, 7.34, repro,
2008-07-03,4.57, -0.83, -25.25, 2.26, 1.56, 7.27, repro,
2008-07-04,3.16, -2.94, -5.76, 2.26, 1.58, 7.29, repro,
2008-07-05,4.09, -0.68, -17.24, 2.24, 1.56, 7.23, repro,
2008-07-06,4.55, -1.07, -14.38, 2.23, 1.55, 7.17, repro,
2008-07-07,3.77, -1.26, -7.31, 2.23, 1.60, 7.34, repro,
2008-07-08,2.71, -1.48, -12.36, 2.23, 1.56, 7.19, repro,
2008-07-09,4.70, -0.55, -11.52, 2.32, 1.66, 7.69, repro,
2008-07-10,3.79, -1.82, -12.99, 2.31, 1.60, 7.40, repro,
2008-07-11,3.43, -1.82, -16.93, 2.31, 1.63, 7.50, repro,
2008-07-12,4.08, -0.81, -18.29, 2.24, 1.55, 7.21, repro,
2008-07-13,4.14, -1.09, -11.56, 2.27, 1.62, 7.56, repro,
2008-07-14,2.84, -1.62, -10.00, 2.30, 1.61, 7.55, repro,
2008-07-15,2.56, -1.83, -11.94, 2.28, 1.57, 7.40, repro,
2008-07-16,3.75, -1.12, -6.61, 2.30, 1.59, 7.42, repro,
2008-07-17,4.06, -0.92, -15.44, 2.23, 1.55, 7.19, repro,
2008-07-18,3.76, 0.06, -17.14, 2.37, 1.61, 7.62, repro,
2008-07-19,4.59, -0.47, -10.59, 2.26, 1.56, 7.27, repro,
2008-07-20,2.81, -1.05, -6.36, 2.24, 1.55, 7.19, repro,
2008-07-21,4.96, -0.67, -4.29, 2.23, 1.56, 7.17, repro,
2008-07-22,2.56, -1.36, -3.46, 2.26, 1.56, 7.26, repro,
2008-07-23,1.87, -0.67, -14.90, 2.34, 1.60, 7.41, repro,
2008-07-24,5.12, -0.19, -16.65, 2.28, 1.65, 7.64, repro,
2008-07-25,2.80, -0.93, -11.03, 2.25, 1.57, 7.33, repro,
2008-07-26,3.54, -1.23, -10.47, 2.26, 1.56, 7.26, repro,
2008-07-27,4.35, -1.29, -9.47, 2.26, 1.57, 7.25, repro,
2008-07-28,2.94, -0.87, -5.05, 2.32, 1.59, 7.29, repro,
2008-07-29,4.01, 0.95, -12.36, 2.30, 1.57, 7.45, repro,
2008-07-30,2.99, -1.50, -13.95, 2.55, 1.74, 8.29, repro,
2008-07-31,2.45, -0.26, -6.04, 2.26, 1.57, 7.35, repro,
2008-08-01,1.32, -2.27, -7.35, 2.23, 1.55, 7.16, repro,
2008-08-02,1.88, -2.43, -11.16, 2.25, 1.56, 7.22, repro,
2008-08-03,3.54, 0.25, -9.99, 2.25, 1.58, 7.35, repro,
2008-08-04,4.55, -0.80, -12.51, 2.54, 1.79, 8.31, repro,
2008-08-05,4.81, -1.29, -8.86, 2.25, 1.57, 7.30, repro,
2008-08-06,2.53, -1.24, -8.97, 2.30, 1.56, 7.28, repro,
2008-08-07,3.99, -1.11, -2.13, 2.52, 1.69, 7.81, repro,
2008-08-08,2.37, -1.31, -8.93, 2.46, 1.65, 7.58, repro,
2008-08-09,5.36, -2.06, -0.81, 2.34, 1.63, 7.58, repro,
2008-08-10,2.90, -2.12, -12.58, 2.32, 1.59, 7.44, repro,
2008-08-11,1.48, -0.35, -12.58, 2.33, 1.59, 7.44, repro,
2008-08-12,2.87, -0.29, -8.58, 2.30, 1.58, 7.39, repro,
2008-08-13,3.44, -0.93, -9.24, 2.28, 1.57, 7.34, repro,
2008-08-14,2.94, -0.75, -14.21, 2.28, 1.57, 7.30, repro,
2008-08-15,3.35, -0.46, -9.52, 2.34, 1.60, 7.54, repro,
2008-08-16,3.59, -0.50, -7.62, 2.31, 1.58, 7.37, repro,
2008-08-17,3.96, -0.67, -6.24, 2.31, 1.58, 7.38, repro,
2008-08-18,2.13, -0.45, -4.72, 2.33, 1.60, 7.47, repro,
2008-08-19,1.22, -1.87, -8.93, 2.38, 1.62, 7.48, repro,
2008-08-20,3.58, -0.73, -4.95, 2.33, 1.59, 7.41, repro,
2008-08-21,2.02, 0.25, 5.45, 2.35, 1.58, 7.44, repro,
2008-08-22,3.14, -0.94, -5.91, 2.31, 1.57, 7.31, repro,
2008-08-23,2.82, -0.02, -13.08, 2.29, 1.56, 7.27, repro,
2008-08-24,3.12, -2.56, -8.32, 2.32, 1.59, 7.40, repro,
2008-08-25,2.45, -3.45, -10.84, 2.30, 1.57, 7.29, repro,
2008-08-26,2.03, -0.65, -7.59, 2.34, 1.62, 7.56, repro,
2008-08-27,5.33, -1.66, -11.24, 2.30, 1.57, 7.21, repro,
2008-08-28,3.21, -1.36, -13.10, 2.69, 1.82, 8.25, repro,
2008-08-29,2.17, -0.52, -8.52, 2.26, 1.55, 7.04, repro,
2008-08-30,2.66, -1.60, -1.81, 2.30, 1.56, 7.16, repro,
2008-08-31,2.37, -0.86, -11.18, 2.27, 1.56, 7.12, repro,
2008-09-01,4.14, -0.19, -14.24, 2.29, 1.57, 7.15, repro,
2008-09-02,3.49, 0.11, -17.51, 2.29, 1.56, 7.17, repro,
2008-09-03,3.69, -0.66, -17.53, 2.25, 1.54, 7.03, repro,
2008-09-04,2.30, -0.14, -13.20, 2.51, 1.79, 8.25, repro,
2008-09-05,2.67, -2.00, -10.25, 2.36, 1.61, 7.36, repro,
2008-09-06,4.11, 0.38, -11.38, 2.28, 1.57, 7.17, repro,
2008-09-07,5.09, 0.42, -11.68, 2.30, 1.57, 7.23, repro,
2008-09-08,4.85, 0.53, -14.72, 2.26, 1.55, 7.08, repro,
2008-09-09,3.57, -0.16, -10.26, 2.28, 1.54, 7.04, repro,
2008-09-10,2.46, -1.92, -3.28, 2.47, 1.80, 8.16, repro,
2008-09-11,1.97, -0.97, -9.12, 2.36, 1.64, 7.43, repro,
2008-09-12,3.03, -1.41, -5.35, 2.27, 1.58, 7.21, repro,
2008-09-13,4.26, 0.29, -9.73, 2.27, 1.54, 7.02, repro,
2008-09-14,4.14, 0.19, -11.71, 2.26, 1.53, 6.99, repro,
2008-09-15,3.63, -0.22, -14.23, 2.26, 1.54, 7.04, repro,
2008-09-16,3.25, -0.36, -14.47, 2.27, 1.59, 7.31, repro,
2008-09-17,3.27, -0.06, -11.80, 2.36, 1.63, 7.52, repro,
2008-09-18,3.31, -0.68, -12.59, 2.29, 1.56, 7.22, repro,
2008-09-19,3.35, -1.10, -8.52, 2.28, 1.56, 7.19, repro,
2008-09-20,2.83, -1.63, -8.90, 2.26, 1.55, 7.16, repro,
2008-09-21,1.97, -1.10, -12.25, 2.32, 1.58, 7.28, repro,
2008-09-22,3.39, -0.17, -8.91, 2.27, 1.57, 7.22, repro,
2008-09-23,3.06, -0.87, -8.88, 2.28, 1.57, 7.26, repro,
2008-09-24,-0.45, -0.52, -6.62, 2.38, 1.64, 7.52, repro,
2008-09-25,3.48, 0.91, -19.72, 2.30, 1.56, 7.26, repro,
2008-09-26,4.12, -0.43, -14.00, 2.31, 1.59, 7.29, repro,
2008-09-27,3.55, -0.72, -13.39, 2.31, 1.60, 7.33, repro,
2008-09-28,5.17, -0.07, -12.80, 2.29, 1.57, 7.27, repro,
2008-09-29,3.43, -0.85, -18.52, 2.32, 1.59, 7.28, repro,
2008-09-30,3.28, -1.24, -12.92, 2.39, 1.70, 7.87, repro,
2008-10-01,3.02, -0.94, -17.03, 2.27, 1.55, 7.15, repro,
2008-10-02,1.86, -0.27, -10.13, 2.38, 1.61, 7.47, repro,
2008-10-03,3.17, -1.16, -3.67, 2.40, 1.65, 7.63, repro,
2008-10-04,6.18, -0.17, -3.49, 2.28, 1.57, 7.22, repro,
2008-10-05,2.18, -2.32, -12.87, 2.27, 1.54, 7.10, repro,
2008-10-06,4.04, -1.06, -8.53, 2.28, 1.56, 7.17, repro,
2008-10-07,0.72, -0.68, -19.69, 2.42, 1.62, 7.50, repro,
2008-10-08,4.42, -0.96, -19.11, 2.38, 1.63, 7.48, repro,
2008-10-09,4.59, -1.02, -12.73, 2.22, 1.55, 7.15, repro,
2008-10-10,4.33, -0.21, -20.50, 2.29, 1.64, 7.50, repro,
2008-10-11,3.95, -0.83, -14.40, 2.22, 1.54, 7.10, repro,
2008-10-12,0.99, 1.01, -14.63, 2.21, 1.53, 7.07, repro,
2008-10-13,2.13, -0.65, -21.83, 2.37, 1.63, 7.60, repro,
2008-10-14,5.26, 0.09, -16.95, 2.22, 1.55, 7.13, repro,
2008-10-15,4.51, -0.71, -19.04, 2.32, 1.58, 7.40, repro,
2008-10-16,4.01, -0.75, -17.14, 2.29, 1.57, 7.27, repro,
2008-10-17,1.68, -0.72, -21.00, 2.29, 1.58, 7.36, repro,
2008-10-18,3.67, -1.26, -16.01, 2.24, 1.56, 7.21, repro,
2008-10-19,4.10, -0.35, -17.14, 2.27, 1.58, 7.30, repro,
2008-10-20,2.79, 2.04, -12.42, 2.23, 1.55, 7.21, repro,
2008-10-21,2.62, 1.14, -23.59, 2.25, 1.55, 7.13, repro,
2008-10-22,2.80, -0.75, -20.23, 2.20, 1.53, 7.01, repro,
2008-10-23,1.59, -0.61, -20.72, 2.22, 1.55, 7.10, repro,
2008-10-24,3.20, -0.86, -10.52, 2.26, 1.58, 7.30, repro,
2008-10-25,3.01, -0.23, -8.21, 2.22, 1.54, 7.10, repro,
2008-10-26,2.29, -0.53, -19.02, 2.22, 1.54, 7.10, repro,
2008-10-27,2.64, 0.25, -24.04, 2.20, 1.53, 7.00, repro,
2008-10-28,2.81, -0.27, -24.09, 2.31, 1.56, 7.14, repro,
2008-10-29,2.77, -1.44, -15.28, 2.39, 1.67, 7.64, repro,
2008-10-30,3.75, -0.57, -10.71, 2.23, 1.54, 7.09, repro,